Date String (YYYY-MM-DD hh:mm:ss) UTC,Instrument flags,Ambient pressure (hPa),Sample flow (lpm),Bypass flow (lpm),Sample temperature (°C),Ambient temperature (°C),ASC tube jacket temperature (°C),LED temperature (°C),Box temperature (°C),Sample RH (%),Span deviation,Mass concentration (μg/m³),Mass concentration (μg/m³),Mass concentration (μg/m³)
DateTimeUTC,F1_M11,P_M11,Q1_M11,Q2_M11,T1_M11,T2_M11,T3_M11,T4_M11,T5_M11,U1_M11,ZSPAN_M11,X0_M11,X2_M11,X1_M11
2022-03-28 10:00:00,,0819.4,5.00,0.00,27.8,26.9,00.0,36.8,29.6,13.9,0002.5,0027.54,0014.86,0013.34
2022-03-28 10:01:00,,0819.4,4.99,0.00,27.8,26.9,00.0,36.8,29.6,13.9,0002.4,0026.54,0014.94,0013.43
2022-03-28 10:02:00,,0819.4,4.99,0.00,27.8,26.9,00.0,36.8,29.6,13.9,0002.2,0027.29,0015.06,0013.46
2022-03-28 10:03:00,,0819.3,5.00,0.00,27.8,26.9,00.0,36.8,29.6,13.9,0002.3,0028.22,0015.11,0013.50
2022-03-28 10:04:00,,0819.2,5.02,0.00,27.8,26.9,00.0,36.8,29.6,13.9,0002.5,0028.88,0015.11,0013.52
2022-03-28 10:05:00,,0819.2,5.01,0.00,27.8,26.9,00.0,36.8,29.6,13.9,0002.5,0029.03,0015.08,0013.47
2022-03-28 10:06:00,,0819.2,4.99,0.00,27.8,26.9,00.0,36.8,29.6,14.0,0002.2,0029.39,0015.04,0013.39
2022-03-28 10:07:00,,0819.3,4.99,0.00,27.8,26.9,00.0,36.8,29.6,14.0,0002.4,0028.95,0014.91,0013.30
2022-03-28 10:08:00,,0819.4,5.01,0.00,27.8,26.9,00.0,36.8,29.6,14.0,0002.6,0027.65,0014.89,0013.25
2022-03-28 10:09:00,,0819.4,4.99,0.00,27.8,26.9,00.0,36.8,29.6,14.0,0002.5,0027.33,0014.95,0013.28
2022-03-28 10:10:00,,0819.4,5.00,0.00,27.8,26.9,00.0,36.8,29.6,14.0,0002.9,0027.28,0014.99,0013.26
2022-03-28 10:11:00,,0819.4,5.00,0.00,27.8,26.9,00.0,36.8,29.6,14.0,0003.2,0028.04,0015.02,0013.22
2022-03-28 10:12:00,,0819.4,4.99,0.00,27.8,26.9,00.0,36.8,29.6,14.0,0003.3,0028.54,0014.96,0013.08
2022-03-28 10:13:00,,0819.4,5.00,0.00,27.8,26.9,00.0,36.8,29.6,14.0,0003.1,0028.01,0014.86,0013.00
2022-03-28 10:14:00,,0819.4,5.01,0.00,27.8,26.9,00.0,36.8,29.6,13.9,0002.7,0027.39,0014.83,0012.96
2022-03-28 10:15:00,,0819.3,5.01,0.00,27.8,26.9,00.0,36.8,29.6,13.8,0002.5,0027.28,0014.87,0012.99
2022-03-28 10:16:00,,0819.3,5.00,0.00,27.8,26.9,00.0,36.8,29.6,13.8,0002.7,0027.62,0014.95,0013.03
2022-03-28 10:17:00,,0819.3,5.00,0.00,27.8,26.9,00.0,36.8,29.6,13.9,0002.9,0027.63,0015.04,0013.09
2022-03-28 10:18:00,,0819.3,5.00,0.00,27.8,26.9,00.0,36.8,29.6,13.9,0002.7,0027.23,0015.09,0013.16
2022-03-28 10:19:00,,0819.4,5.00,0.00,27.8,26.9,00.0,36.8,29.6,13.9,0002.6,0026.87,0015.04,0013.16
2022-03-28 10:20:00,,0819.4,4.99,0.00,27.8,26.9,00.0,36.8,29.6,13.9,0002.4,0026.96,0015.04,0013.14
2022-03-28 10:21:00,,0819.4,5.01,0.00,27.8,26.9,00.0,36.8,29.6,13.8,0002.5,0027.44,0015.05,0013.17
2022-03-28 10:22:00,,0819.2,5.01,0.00,27.8,26.9,00.0,36.8,29.6,13.8,0002.3,0027.25,0015.04,0013.22
2022-03-28 10:23:00,,0819.2,5.00,0.00,27.8,26.9,00.0,36.8,29.6,13.7,0002.0,0027.21,0015.11,0013.34
2022-03-28 10:24:00,,0819.1,5.00,0.00,27.8,26.9,00.0,36.8,29.6,13.7,0002.2,0028.22,0015.25,0013.48
2022-03-28 10:25:00,,0819.1,5.00,0.00,27.8,26.8,00.0,36.8,29.6,13.8,0001.9,0029.40,0015.37,0013.58
2022-03-28 10:26:00,,0819.2,5.01,0.00,27.8,26.9,00.0,36.8,29.6,13.9,0001.5,0029.29,0015.44,0013.64
2022-03-28 10:27:00,,0819.2,4.99,0.00,27.8,26.9,00.0,36.8,29.6,13.9,0001.2,0029.07,0015.49,0013.71
2022-03-28 10:28:00,,0819.2,4.99,0.00,27.8,26.9,00.0,36.8,29.6,13.9,0001.0,0029.23,0015.46,0013.69
2022-03-28 10:29:00,,0819.3,5.00,0.00,27.8,26.9,00.0,36.8,29.6,13.8,0000.6,0029.16,0015.54,0013.75
2022-03-28 10:30:00,,0819.3,5.00,0.00,27.8,26.8,00.0,36.8,29.6,13.9,0000.1,0029.11,0015.63,0013.83
2022-03-28 10:31:00,,0819.2,5.00,0.00,27.8,26.9,00.0,36.8,29.6,13.8,0000.3,0029.14,0015.68,0013.93
2022-03-28 10:32:00,,0819.3,4.99,0.00,27.8,26.9,00.0,36.8,29.5,13.8,0000.2,0029.04,0015.76,0014.00
2022-03-28 10:33:00,,0819.4,5.02,0.00,27.8,26.9,00.0,36.8,29.5,13.9,0000.6,0028.83,0015.74,0013.98
2022-03-28 10:34:00,,0819.3,4.99,0.00,27.8,26.8,00.0,36.8,29.5,13.9,0001.0,0028.34,0015.71,0013.93
2022-03-28 10:35:00,,0819.2,5.00,0.00,27.8,26.8,00.0,36.8,29.5,13.9,0001.4,0028.79,0015.73,0013.93
2022-03-28 10:36:00,,0819.2,5.00,0.00,27.8,26.8,00.0,36.8,29.5,13.8,0002.3,0027.73,0015.77,0013.98
2022-03-28 10:37:00,,0819.2,5.01,0.00,27.8,26.8,00.0,36.8,29.5,13.8,0002.7,0027.06,0015.67,0013.95
2022-03-28 10:38:00,,0819.2,4.99,0.00,27.8,26.8,00.0,36.8,29.5,14.0,0002.5,0026.61,0015.58,0013.91
2022-03-28 10:39:00,,0819.2,4.99,0.00,27.8,26.8,00.0,36.8,29.5,14.0,0002.4,0026.05,0015.59,0013.94
2022-03-28 10:40:00,,0819.2,5.01,0.00,27.8,26.8,00.0,36.8,29.5,13.9,0002.5,0025.78,0015.62,0014.01
2022-03-28 10:41:00,,0819.2,5.00,0.00,27.8,26.8,00.0,36.8,29.5,13.9,0002.7,0026.05,0015.77,0014.10
2022-03-28 10:42:00,,0819.2,5.00,0.00,27.8,26.8,00.0,36.8,29.5,13.8,0003.0,0026.69,0015.87,0014.17
2022-03-28 10:43:00,,0819.4,4.99,0.00,27.8,26.8,00.0,36.8,29.5,13.8,0003.2,0026.63,0015.92,0014.18
2022-03-28 10:44:00,,0819.4,5.00,0.00,27.8,26.8,00.0,36.8,29.5,13.8,0003.3,0028.25,0015.95,0014.18
2022-03-28 10:45:00,,0819.4,5.01,0.00,27.8,26.8,00.0,36.8,29.5,13.8,0003.6,0029.17,0016.07,0014.24
2022-03-28 10:46:00,,0819.4,4.99,0.00,27.8,26.8,00.0,36.8,29.5,13.5,0003.2,0028.36,0016.02,0014.19
2022-03-28 10:47:00,,0819.3,5.00,0.00,27.8,26.8,00.0,36.8,29.5,13.3,0002.7,0028.50,0015.83,0014.05
2022-03-28 10:48:00,,0819.2,5.00,0.00,27.8,26.8,00.0,36.8,29.5,13.2,0002.3,0029.09,0015.80,0013.94
2022-03-28 10:49:00,,0819.2,5.01,0.00,27.8,26.8,00.0,36.8,29.5,13.1,0002.3,0029.06,0015.76,0013.89
2022-03-28 10:50:00,,0819.2,5.01,0.00,27.7,26.8,00.0,36.8,29.5,13.2,0002.5,0029.37,0015.72,0013.82
2022-03-28 10:51:00,,0819.3,4.99,0.00,27.8,26.8,00.0,36.8,29.5,13.3,0002.5,0029.45,0015.55,0013.70
2022-03-28 10:52:00,,0819.4,4.99,0.00,27.8,26.8,00.0,36.8,29.5,13.5,0002.7,0029.54,0015.38,0013.59
2022-03-28 10:53:00,,0819.5,5.02,0.00,27.7,26.8,00.0,36.8,29.5,13.7,0003.0,0029.37,0015.31,0013.55
2022-03-28 10:54:00,,0819.4,5.00,0.00,27.7,26.7,00.0,36.7,29.5,13.7,0003.2,0029.73,0015.27,0013.51
2022-03-28 10:55:00,,0819.3,4.99,0.00,27.7,26.7,00.0,36.7,29.4,13.7,0003.2,0028.93,0015.16,0013.45
2022-03-28 10:56:00,,0819.2,5.00,0.00,27.7,26.7,00.0,36.7,29.4,13.9,0002.9,0029.12,0015.13,0013.43
2022-03-28 10:57:00,,0819.2,5.02,0.00,27.7,26.7,00.0,36.7,29.4,14.0,0002.7,0030.13,0015.12,0013.49
2022-03-28 10:58:00,,0819.2,5.00,0.00,27.7,26.7,00.0,36.7,29.4,14.0,0002.9,0030.36,0015.24,0013.61
2022-03-28 10:59:00,,0819.3,5.00,0.00,27.7,26.7,00.0,36.7,29.4,14.0,0003.1,0030.42,0015.37,0013.73
